EWG1337 LIME-LFSB

Flight info

Callsign EWG1337
Flight time 0h 44m
Altitude 24000
Route SRN DCT CANNE Z651 MANEG L613 HOC/N0423F230 DCT LUMEL
Aircraft A319/M-SDE3FGHIRWY/LB1

Departure

Time 2026-05-05 20:07
Airport Il Caravaggio International Airport (LIME)

Arrival

Time 2026-05-05 20:52
Airport EuroAirport Basel–Mulhouse–Freiburg (LFSB)
Time Latitude Longitude Altitude Speed Heading
2026-05-05 19:17 45.66633 9.69989 785 ft 0 kts 195°
2026-05-05 19:58 45.66645 9.69993 787 ft 2 kts 194°
2026-05-05 19:59 45.66661 9.69999 787 ft 2 kts 194°
2026-05-05 19:59 45.66677 9.70005 787 ft 2 kts 197°
2026-05-05 19:59 45.66693 9.70012 787 ft 2 kts 198°
2026-05-05 19:59 45.66709 9.70017 787 ft 2 kts 197°
2026-05-05 20:00 45.66725 9.70024 787 ft 2 kts 192°
2026-05-05 20:00 45.66738 9.70014 787 ft 2 kts 119°
2026-05-05 20:00 45.66742 9.69998 787 ft 1 kts 114°
2026-05-05 20:02 45.66738 9.70022 787 ft 6 kts 104°
2026-05-05 20:02 45.66725 9.70096 787 ft 10 kts 104°
2026-05-05 20:03 45.66700 9.70231 787 ft 17 kts 104°
2026-05-05 20:03 45.66668 9.70401 787 ft 18 kts 105°
2026-05-05 20:03 45.66636 9.70577 787 ft 19 kts 104°
2026-05-05 20:03 45.66602 9.70760 787 ft 19 kts 105°
2026-05-05 20:04 45.66567 9.70947 787 ft 20 kts 105°
2026-05-05 20:04 45.66527 9.71138 787 ft 20 kts 114°
2026-05-05 20:04 45.66479 9.71329 787 ft 21 kts 104°
2026-05-05 20:04 45.66443 9.71530 787 ft 21 kts 104°
2026-05-05 20:05 45.66461 9.71736 787 ft 21 kts 75°
2026-05-05 20:05 45.66458 9.71944 787 ft 22 kts 104°
2026-05-05 20:05 45.66419 9.72154 787 ft 22 kts 104°
2026-05-05 20:05 45.66382 9.72358 787 ft 19 kts 104°
2026-05-05 20:06 45.66386 9.72458 787 ft 9 kts 54°
2026-05-05 20:06 45.66444 9.72450 787 ft 10 kts 320°
2026-05-05 20:06 45.66478 9.72334 787 ft 24 kts 285°
2026-05-05 20:06 45.66595 9.71710 787 ft 102 kts 285°
2026-05-05 20:07 45.66837 9.70423 803 ft 161 kts 285°
2026-05-05 20:07 45.67104 9.68914 1421 ft 159 kts 279°
2026-05-05 20:07 45.67023 9.67316 2064 ft 165 kts 253°
2026-05-05 20:07 45.66406 9.65831 2470 ft 184 kts 225°
2026-05-05 20:08 45.65492 9.64518 3113 ft 188 kts 223°
2026-05-05 20:08 45.64571 9.63177 3851 ft 190 kts 224°
2026-05-05 20:08 45.63645 9.61817 4661 ft 190 kts 224°
2026-05-05 20:08 45.62721 9.60456 5439 ft 190 kts 225°
2026-05-05 20:09 45.61805 9.59106 6210 ft 189 kts 225°
2026-05-05 20:09 45.60857 9.57731 6792 ft 203 kts 224°
2026-05-05 20:09 45.59841 9.56281 7351 ft 209 kts 224°
2026-05-05 20:09 45.58738 9.54917 7993 ft 212 kts 208°
2026-05-05 20:10 45.57289 9.54506 8621 ft 219 kts 177°
2026-05-05 20:10 45.55853 9.55270 9295 ft 227 kts 147°
2026-05-05 20:10 45.54869 9.57049 9962 ft 237 kts 115°
2026-05-05 20:10 45.54715 9.59401 10550 ft 246 kts 79°
2026-05-05 20:11 45.55515 9.61534 11131 ft 252 kts 50°
2026-05-05 20:11 45.56685 9.63447 11785 ft 253 kts 48°
2026-05-05 20:11 45.57805 9.65250 11946 ft 257 kts 48°
2026-05-05 20:11 45.58992 9.67159 11996 ft 257 kts 48°
2026-05-05 20:12 45.60182 9.69075 12181 ft 260 kts 48°
2026-05-05 20:12 45.61390 9.70993 12888 ft 260 kts 44°
2026-05-05 20:12 45.62902 9.72385 13493 ft 261 kts 17°
2026-05-05 20:12 45.64676 9.72753 14058 ft 258 kts 352°
2026-05-05 20:13 45.66418 9.72059 14340 ft 269 kts 326°
2026-05-05 20:13 45.67844 9.70266 14585 ft 282 kts 301°
2026-05-05 20:13 45.68562 9.68619 14747 ft 296 kts 296°
2026-05-05 20:13 45.69654 9.65984 14954 ft 320 kts 296°
2026-05-05 20:14 45.70818 9.63180 15119 ft 343 kts 297°
2026-05-05 20:14 45.72081 9.60150 15252 ft 365 kts 297°
2026-05-05 20:14 45.73413 9.56969 15666 ft 378 kts 297°
2026-05-05 20:14 45.74780 9.53728 16308 ft 383 kts 297°
2026-05-05 20:15 45.76304 9.50555 16978 ft 389 kts 302°
2026-05-05 20:15 45.77909 9.47408 17674 ft 394 kts 302°
2026-05-05 20:15 45.79541 9.44236 18337 ft 398 kts 302°
2026-05-05 20:15 45.81191 9.41027 18907 ft 402 kts 302°
2026-05-05 20:16 45.82855 9.37787 19451 ft 405 kts 302°
2026-05-05 20:16 45.84530 9.34512 19978 ft 408 kts 301°
2026-05-05 20:16 45.86211 9.31215 20506 ft 411 kts 301°
2026-05-05 20:16 45.87918 9.27855 21034 ft 414 kts 301°
2026-05-05 20:17 45.89629 9.24482 21567 ft 418 kts 301°
2026-05-05 20:17 45.91342 9.21100 22086 ft 421 kts 301°
2026-05-05 20:17 45.93073 9.17673 22609 ft 424 kts 301°
2026-05-05 20:17 45.94810 9.14227 23085 ft 427 kts 301°
2026-05-05 20:18 45.96565 9.10759 23568 ft 432 kts 301°
2026-05-05 20:18 45.98539 9.07456 23896 ft 440 kts 309°
2026-05-05 20:18 46.00827 9.04573 23988 ft 450 kts 318°
2026-05-05 20:18 46.03438 9.01871 24006 ft 462 kts 319°
2026-05-05 20:19 46.06063 8.99167 24002 ft 467 kts 319°
2026-05-05 20:19 46.08707 8.96434 24005 ft 468 kts 319°
2026-05-05 20:19 46.11344 8.93691 24003 ft 468 kts 319°
2026-05-05 20:19 46.14072 8.91087 24003 ft 473 kts 326°
2026-05-05 20:20 46.17030 8.89096 24004 ft 478 kts 335°
2026-05-05 20:20 46.20237 8.87752 24009 ft 484 kts 345°
2026-05-05 20:20 46.23588 8.87078 24003 ft 487 kts 351°
2026-05-05 20:20 46.26952 8.86578 24000 ft 486 kts 351°
2026-05-05 20:21 46.30316 8.86077 24003 ft 486 kts 351°
2026-05-05 20:21 46.33682 8.85573 23996 ft 485 kts 351°
2026-05-05 20:21 46.37036 8.85070 23992 ft 485 kts 351°
2026-05-05 20:21 46.40397 8.84564 23980 ft 484 kts 351°
2026-05-05 20:22 46.43754 8.84058 23984 ft 485 kts 350°
2026-05-05 20:22 46.47110 8.83552 23982 ft 486 kts 350°
2026-05-05 20:22 46.50477 8.83043 23979 ft 486 kts 350°
2026-05-05 20:22 46.53833 8.82530 23962 ft 484 kts 350°
2026-05-05 20:23 46.57186 8.82017 23965 ft 485 kts 350°
2026-05-05 20:23 46.60535 8.81508 23959 ft 485 kts 350°
2026-05-05 20:23 46.63893 8.81003 23950 ft 484 kts 350°
2026-05-05 20:23 46.67249 8.80498 23944 ft 485 kts 350°
2026-05-05 20:24 46.70599 8.79992 23943 ft 484 kts 350°
2026-05-05 20:24 46.73998 8.79476 23940 ft 484 kts 350°
2026-05-05 20:24 46.77342 8.78974 23932 ft 484 kts 350°
2026-05-05 20:24 46.80700 8.78460 23933 ft 484 kts 350°
2026-05-05 20:25 46.84049 8.77946 23937 ft 484 kts 350°
2026-05-05 20:25 46.87393 8.77433 23939 ft 485 kts 350°
2026-05-05 20:25 46.90716 8.76922 23938 ft 485 kts 350°
2026-05-05 20:25 46.94067 8.76403 23946 ft 485 kts 351°
2026-05-05 20:26 46.97421 8.75881 23941 ft 484 kts 351°
2026-05-05 20:26 47.00764 8.75359 23949 ft 483 kts 351°
2026-05-05 20:26 47.04108 8.74830 23948 ft 482 kts 351°
2026-05-05 20:26 47.07431 8.74301 23945 ft 481 kts 351°
2026-05-05 20:27 47.10745 8.73736 23941 ft 479 kts 348°
2026-05-05 20:27 47.13929 8.72452 24084 ft 469 kts 336°
2026-05-05 20:27 47.16873 8.70382 23944 ft 467 kts 325°
2026-05-05 20:27 47.19448 8.67566 23887 ft 457 kts 314°
2026-05-05 20:28 47.21531 8.64301 23886 ft 451 kts 304°
2026-05-05 20:28 47.23217 8.60497 23883 ft 447 kts 294°
2026-05-05 20:28 47.24437 8.56316 23884 ft 444 kts 287°
2026-05-05 20:28 47.25507 8.52051 23886 ft 445 kts 287°
2026-05-05 20:29 47.26587 8.47759 23890 ft 447 kts 287°
2026-05-05 20:29 47.27670 8.43474 23890 ft 448 kts 287°
2026-05-05 20:29 47.28758 8.39157 23894 ft 449 kts 287°
2026-05-05 20:29 47.29847 8.34833 23893 ft 450 kts 287°
2026-05-05 20:30 47.30932 8.30518 23895 ft 450 kts 287°
2026-05-05 20:30 47.31994 8.26266 23898 ft 451 kts 287°
2026-05-05 20:30 47.33071 8.21931 23897 ft 451 kts 287°
2026-05-05 20:30 47.34146 8.17598 23896 ft 452 kts 287°
2026-05-05 20:31 47.35225 8.13243 23890 ft 452 kts 287°
2026-05-05 20:31 47.36302 8.08890 23896 ft 452 kts 287°
2026-05-05 20:31 47.37377 8.04534 23895 ft 452 kts 287°
2026-05-05 20:31 47.38451 8.00172 23896 ft 452 kts 287°
2026-05-05 20:32 47.39527 7.95798 23893 ft 452 kts 287°
2026-05-05 20:32 47.40600 7.91425 23891 ft 453 kts 287°
2026-05-05 20:32 47.41667 7.87063 23887 ft 453 kts 287°
2026-05-05 20:32 47.42735 7.82690 23885 ft 453 kts 287°
2026-05-05 20:33 47.43803 7.78303 23888 ft 453 kts 286°
2026-05-05 20:33 47.44870 7.73923 23885 ft 453 kts 286°
2026-05-05 20:33 47.45704 7.69453 23881 ft 450 kts 277°
2026-05-05 20:33 47.46064 7.64821 23678 ft 457 kts 269°
2026-05-05 20:34 47.45912 7.60137 23441 ft 455 kts 259°
2026-05-05 20:34 47.45405 7.55526 23166 ft 454 kts 257°
2026-05-05 20:34 47.44881 7.50940 22894 ft 453 kts 257°
2026-05-05 20:34 47.44353 7.46361 22620 ft 450 kts 257°
2026-05-05 20:35 47.43823 7.41819 22351 ft 448 kts 257°
2026-05-05 20:35 47.43292 7.37291 22073 ft 446 kts 257°
2026-05-05 20:35 47.42767 7.32805 21129 ft 441 kts 258°
2026-05-05 20:35 47.42248 7.28372 20246 ft 436 kts 258°
2026-05-05 20:36 47.41736 7.23979 19360 ft 431 kts 258°
2026-05-05 20:36 47.41359 7.19617 18502 ft 429 kts 265°
2026-05-05 20:36 47.41492 7.15217 17561 ft 429 kts 276°
2026-05-05 20:36 47.42173 7.10955 16684 ft 427 kts 286°
2026-05-05 20:37 47.43316 7.06919 15851 ft 424 kts 292°
2026-05-05 20:37 47.44521 7.02998 15048 ft 414 kts 291°
2026-05-05 20:37 47.45679 6.99210 14828 ft 393 kts 291°
2026-05-05 20:37 47.46943 6.95748 14700 ft 375 kts 303°
2026-05-05 20:38 47.48713 6.93051 14580 ft 360 kts 320°
2026-05-05 20:38 47.50852 6.91268 14464 ft 348 kts 336°
2026-05-05 20:38 47.53127 6.90291 14337 ft 334 kts 343°
2026-05-05 20:38 47.55359 6.89547 14214 ft 323 kts 346°
2026-05-05 20:39 47.57532 6.89030 14089 ft 311 kts 354°
2026-05-05 20:39 47.59638 6.89447 13969 ft 303 kts 19°
2026-05-05 20:39 47.61419 6.91002 13777 ft 295 kts 43°
2026-05-05 20:39 47.62656 6.93422 13275 ft 295 kts 68°
2026-05-05 20:40 47.63188 6.96285 12969 ft 286 kts 84°
2026-05-05 20:40 47.63499 6.99205 12528 ft 287 kts 84°
2026-05-05 20:40 47.63804 7.02129 12137 ft 286 kts 84°
2026-05-05 20:40 47.64108 7.05034 11749 ft 285 kts 84°
2026-05-05 20:41 47.64418 7.08031 11368 ft 299 kts 84°
2026-05-05 20:41 47.64934 7.10994 10947 ft 294 kts 67°
2026-05-05 20:41 47.66048 7.13475 10592 ft 287 kts 46°
2026-05-05 20:41 47.67595 7.15293 10158 ft 282 kts 29°
2026-05-05 20:42 47.69302 7.16714 9624 ft 282 kts 28°
2026-05-05 20:42 47.71010 7.18143 9077 ft 281 kts 28°
2026-05-05 20:42 47.72698 7.19575 8551 ft 278 kts 28°
2026-05-05 20:42 47.74365 7.21006 8059 ft 275 kts 28°
2026-05-05 20:43 47.76006 7.22428 7566 ft 271 kts 28°
2026-05-05 20:43 47.77589 7.23903 7076 ft 268 kts 38°
2026-05-05 20:43 47.78823 7.25959 6577 ft 266 kts 58°
2026-05-05 20:43 47.79616 7.28429 6040 ft 264 kts 67°
2026-05-05 20:44 47.80390 7.30917 5384 ft 267 kts 65°
2026-05-05 20:44 47.81148 7.33410 5030 ft 255 kts 73°
2026-05-05 20:44 47.81195 7.35897 4905 ft 233 kts 111°
2026-05-05 20:44 47.80325 7.37856 4851 ft 241 kts 145°
2026-05-05 20:45 47.77399 7.40084 4285 ft 228 kts 161°
2026-05-05 20:45 47.75977 7.41046 3949 ft 222 kts 160°
2026-05-05 20:45 47.74615 7.42005 3687 ft 208 kts 159°
2026-05-05 20:46 47.73362 7.42910 3402 ft 192 kts 160°
2026-05-05 20:46 47.72189 7.43735 3139 ft 180 kts 161°
2026-05-05 20:46 47.71088 7.44492 2930 ft 171 kts 161°
2026-05-05 20:46 47.70028 7.45226 2715 ft 167 kts 161°
2026-05-05 20:47 47.68984 7.45953 2501 ft 164 kts 161°
2026-05-05 20:47 47.67978 7.46656 2275 ft 157 kts 161°
2026-05-05 20:47 47.67004 7.47335 2073 ft 154 kts 160°
2026-05-05 20:47 47.66033 7.48011 1827 ft 155 kts 159°
2026-05-05 20:48 47.65064 7.48684 1694 ft 148 kts 156°
2026-05-05 20:48 47.64229 7.49454 1585 ft 139 kts 128°
2026-05-05 20:48 47.63703 7.50613 1592 ft 130 kts 124°
2026-05-05 20:48 47.63216 7.51715 1598 ft 126 kts 124°
2026-05-05 20:49 47.62740 7.52784 1582 ft 123 kts 125°
2026-05-05 20:49 47.62380 7.53953 1554 ft 135 kts 89°
2026-05-05 20:49 47.62569 7.55317 1750 ft 146 kts 76°
2026-05-05 20:49 47.62789 7.56778 1757 ft 140 kts 79°
2026-05-05 20:50 47.62755 7.58182 1667 ft 144 kts 118°
2026-05-05 20:50 47.62250 7.58831 1560 ft 145 kts 159°
2026-05-05 20:50 47.61006 7.58863 1567 ft 129 kts 184°
2026-05-05 20:50 47.60193 7.58267 1549 ft 134 kts 221°
2026-05-05 20:51 47.59670 7.57137 1506 ft 137 kts 245°
2026-05-05 20:51 47.59423 7.55757 1305 ft 139 kts 260°
2026-05-05 20:51 47.59211 7.54364 1018 ft 137 kts 253°
2026-05-05 20:51 47.58999 7.52985 892 ft 128 kts 256°
2026-05-05 20:52 47.58883 7.52252 891 ft 39 kts 256°
2026-05-05 20:52 47.58832 7.51932 894 ft 20 kts 257°
2026-05-05 20:52 47.58809 7.51787 894 ft 14 kts 257°
2026-05-05 20:52 47.58863 7.51684 894 ft 14 kts 342°
2026-05-05 20:53 47.58928 7.51669 895 ft 14 kts
2026-05-05 20:53 47.59002 7.51744 894 ft 14 kts 42°
2026-05-05 20:53 47.59077 7.51859 892 ft 18 kts 46°
2026-05-05 20:53 47.59173 7.52007 888 ft 21 kts 46°
2026-05-05 20:54 47.59270 7.52173 889 ft 22 kts 59°
2026-05-05 20:54 47.59334 7.52375 890 ft 22 kts 65°
2026-05-05 20:54 47.59396 7.52578 892 ft 21 kts 65°
2026-05-05 20:54 47.59461 7.52777 893 ft 21 kts 63°
2026-05-05 20:55 47.59524 7.52925 892 ft 15 kts 25°
2026-05-05 20:55 47.59629 7.52874 892 ft 17 kts 334°
2026-05-05 20:55 47.59736 7.52793 892 ft 18 kts 332°
2026-05-05 20:55 47.59817 7.52740 892 ft 8 kts
2026-05-05 20:56 47.59856 7.52787 891 ft 8 kts 82°
2026-05-05 20:56 47.59861 7.52803 891 ft 0 kts 62°